Content
SEND FEEDBACK

Daily
Averages
Monthly
Summary
United States of America

WILMINGTON, NORTH CAROLINA


Home > North America > United States > North Carolina
Elevation: 72 feet     Latitude: 34 16N     Longitude: 077 54W

WEATHER
 
SELECT A DAY
Number of Records: 209,043;   Date Range: 1/1/95 - 9/3/14
 
SHARE

PRINT THIS DATA

[ ← Previous Day ]
WEATHER ALMANAC - JANUARY 16, 2013
[ Next Day → ]
[ °C ]   °F
Weather ElementAverageHighLow
Temperature65.9 °F78.1 °F (1:53 pm)59 °F (12:26 am)
Dewpoint60.6 °F64.9 °F (9:53 am)57 °F (9:53 pm)
Humidity84.4 %100 % (2:34 am)56 % (1:53 pm)
Barometer30.02 in30.07 in (12:26 am)29.96 in (2:53 pm)
Wind Speed7.3 mph17.3 mph (11:53 am)
Wind Gust28.8 mph (11:53 am)
Weather ElementAverage
Visibility7.6 mi
Wind DirectionS (179.4 °)

Weather ElementTotal
Precipitation---
Cooling Degree Days3.6 (Base 65)
Growing Degree Days18.6 (Base 50)
Averaged from 32 records on January 16, 2013
WEATHER CONDITIONS BREAKOUT
WIND DIRECTION BREAKOUT
WEATHER BY HOUR - JANUARY 16, 2013
[ °C ]   °F
Local TimeTemperatureDewpointHumidityBarometerVisibilityWind DirectionWind SpeedGust SpeedPrecipitationEventsConditions
12:26 AM59.0 °F57.2 °F94 %30.07 in0.2 miESE (120°)3.5 mphFogFog
12:53 AM59.0 °F57.2 °F94 %30.06 in0.2 miSE (130°)4.6 mphFogFog
1:00 AM59.0 °F57.2 °F94 %30.06 in0.2 miSE (140°)4.6 mphFogFog
1:53 AM61.0 °F60.1 °F97 %30.06 in0.2 miSSE (150°)5.8 mphFogFog
2:34 AM60.8 °F60.8 °F100 %30.06 in0.5 miCalmFogFog
2:53 AM60.8 °F60.8 °F100 %30.05 in0.5 miCalmFogFog
3:22 AM60.8 °F60.8 °F100 %30.04 in1.5 miSouth (170°)5.8 mphMostly Cloudy
3:24 AM60.8 °F59.0 °F94 %30.04 in4.0 miSouth (180°)5.8 mphMostly Cloudy
3:31 AM62.6 °F60.8 °F94 %30.03 in10.0 miSouth (180°)6.9 mphScattered Clouds
3:53 AM63.0 °F62.1 °F97 %30.03 in10.0 miSouth (190°)8.1 mphClear
4:53 AM64.0 °F62.1 °F93 %30.01 in10.0 miSouth (180°)5.8 mphClear
5:53 AM63.0 °F61.0 °F93 %30.02 in10.0 miSouth (190°)3.5 mphScattered Clouds
6:53 AM62.1 °F60.1 °F93 %30.02 in10.0 miSouth (180°)5.8 mphClear
7:53 AM64.9 °F63.0 °F93 %30.04 in10.0 miSSW (210°)5.8 mphClear
8:48 AM66.2 °F64.4 °F94 %30.05 in10.0 miSW (230°)10.4 mphMostly Cloudy
8:53 AM68.0 °F64.0 °F87 %30.05 in10.0 miSW (230°)10.4 mphMostly Cloudy
9:42 AM69.8 °F64.4 °F83 %30.05 in10.0 miSSW (210°)9.2 mphScattered Clouds
9:53 AM71.1 °F64.9 °F81 %30.05 in10.0 miSW (220°)13.8 mph19.6 mphPartly Cloudy
10:53 AM75.0 °F64.0 °F69 %30.04 in10.0 miWSW (240°)16.1 mphClear
11:53 AM75.0 °F62.1 °F64 %30.00 in10.0 miSW (220°)17.3 mph28.8 mphClear
12:53 PM75.9 °F61.0 °F60 %29.99 in10.0 miSSW (210°)13.8 mph24.2 mphClear
1:53 PM78.1 °F61.0 °F56 %29.97 in10.0 miSSW (210°)10.4 mph20.7 mphPartly Cloudy
2:53 PM75.9 °F61.0 °F60 %29.96 in10.0 miSSW (210°)13.8 mph19.6 mphClear
3:53 PM75.0 °F61.0 °F62 %29.97 in10.0 miSSW (200°)11.5 mphClear
4:53 PM72.0 °F60.1 °F66 %29.99 in10.0 miSSW (210°)10.4 mphClear
5:53 PM68.0 °F59.0 °F73 %29.99 in10.0 miSSW (200°)8.1 mphClear
6:53 PM66.9 °F59.0 °F76 %30.01 in10.0 miWSW (250°)3.5 mphClear
7:53 PM64.9 °F57.9 °F78 %30.01 in10.0 miWSW (250°)4.6 mphClear
8:53 PM63.0 °F57.9 °F84 %30.01 in10.0 miSouth (190°)4.6 mphClear
9:53 PM60.1 °F57.0 °F90 %30.01 in10.0 miCalmClear
10:53 PM61.0 °F57.9 °F90 %30.00 in10.0 miSW (230°)3.5 mphClear
11:53 PM62.1 °F60.1 °F93 %29.99 in6.0 miSSW (210°)4.6 mphClear
Hourly data recorded from KILM, located miles away from Wilmington, North Carolina







STORIES FROM OUR PARTNERS